"TOA5","AWS1","CR1000","7964","CR1000.Std.14","CPU:AWS1_114.CR1","64363","TBL110"
"TIMESTAMP","RECORD","Wind_spd_WVc(1)","Wind_spd_WVc(2)","Air_Temp_Avg","Humidity_Avg","SW_upper_Wm2_Avg","Rain_Tot","Press_Avg","Issui_Tot","Depth_cm","SR50A_Raw","Quality","Ground_Temp_Avg(1)","Ground_Temp_Avg(2)","SW_lower_Wm2_Avg","Albedo_Avg","SWC_per(1)","SWC_per(2)","Period(1)","Period(2)"
"TS","RN","","","","","","","","","","","","","","","","","","",""
"","","WVc","WVc","Avg","Avg","Avg","Tot","Avg","Tot","Smp","Smp","Smp","Avg","Avg","Avg","Avg","Smp","Smp","Smp","Smp"
"2016-07-04 00:00:00",242701,0.238,357.7,19.16,72.96,0,0,867.1468,0,9.14,2.985,330,19.87,19.09,1.765926,0,47.73,54.8,32.73,34.46
"2016-07-04 00:10:00",242702,0.161,44.79,18.06,82.7,0,0,866.9573,0,-22.7,3.306,199,19.84,19.09,0.1528241,0,47.68,54.8,32.71,34.46
"2016-07-04 00:20:00",242703,0.065,214.7,17.06,89.3,0,0,867.2032,0,-22.7,3.305,200,19.88,19.1,0,0,47.73,54.8,32.73,34.46
"2016-07-04 00:30:00",242704,0.065,207.6,17.08,90.6,0,0,867.392,0,10.08,2.989,346,19.84,19.1,0,0,47.73,54.8,32.73,34.46
"2016-07-04 00:40:00",242705,0.221,186.6,16.49,99.6,0,0,867.3939,0,-23.01,3.312,198,19.77,19.1,0,0,47.73,54.8,32.73,34.46
"2016-07-04 00:50:00",242706,0.138,191.3,16.76,97.3,0,0,867.3448,0,318,0,0,19.74,19.1,0.1743189,0,47.73,54.8,32.73,34.46
"2016-07-04 01:00:00",242707,0.177,192.6,16.8,98.3,0,0,867.2396,0,10.38,2.985,336,19.76,19.1,0.1629503,0,47.73,54.8,32.73,34.46
"2016-07-04 01:10:00",242708,0.045,167.7,16.74,99.8,0,0,867.1385,0,-22.39,3.304,197,19.71,19.1,0.1781084,0,47.73,54.8,32.73,34.46
"2016-07-04 01:20:00",242709,0.162,135.5,17.06,98.9,0,0,867.0168,0,-28.89,3.365,221,19.67,19.1,0.5419043,0,47.73,54.8,32.73,34.46
"2016-07-04 01:30:00",242710,0.191,156.6,16.96,99.9,0,0,866.8506,0,10.72,2.981,360,19.65,19.1,0.1023176,0,47.73,54.8,32.73,34.46
"2016-07-04 01:40:00",242711,0.15,215.6,17.15,97.9,0.1572113,0,866.7179,0,-22.75,3.303,188,19.71,19.1,0.4509554,0.799,47.73,54.8,32.73,34.46
"2016-07-04 01:50:00",242712,0.267,323.3,17.97,86.8,0.3340741,0,867.0021,0,19.62,2.891,338,19.66,19.1,1.311181,0.66,47.73,54.8,32.73,34.46
"2016-07-04 02:00:00",242713,0.032,13.19,17.44,97.7,0,0.5,866.947,0,20.51,2.886,328,19.62,19.1,0.511588,0,47.73,54.8,32.73,34.46
"2016-07-04 02:10:00",242714,0.098,356.8,16.88,100,0,0.5,867.0001,0,22.33,2.869,259,19.58,19.08,0.1667376,0,47.73,54.8,32.73,34.46
"2016-07-04 02:20:00",242715,0,0,16.74,100,0,1,867.0964,0,-16.73,3.249,177,19.6,19.04,0.3524241,0,47.73,54.8,32.73,34.46
"2016-07-04 02:30:00",242716,0.018,8.63,16.76,100,0,1.5,867.3846,0,21.64,2.877,369,19.62,19.03,0.5381126,0,47.73,54.8,32.73,34.46
"2016-07-04 02:40:00",242717,0,0,16.7,100,0,1.5,867.6329,0,-18.28,3.265,177,19.61,19.02,0.3410583,0,47.73,54.8,32.73,34.46
"2016-07-04 02:50:00",242718,0.142,47.81,16.53,100,0,1.5,867.6094,0,20.57,2.888,229,19.54,19.02,0.2273724,0,48.11,54.8,32.82,34.46
"2016-07-04 03:00:00",242719,0.359,114.9,16.41,100,0,1,867.6017,0,24.02,2.856,329,19.51,19.02,0.1288444,0,48.54,54.8,32.93,34.46
"2016-07-04 03:10:00",242720,0.521,124.7,16.3,100,0,0.5,867.5508,0,19.33,2.902,344,19.53,19.02,0.1781084,0,48.86,54.8,33.01,34.46
"2016-07-04 03:20:00",242721,0.299,96.7,16.17,100,0,0,867.6878,0,19.95,2.896,281,19.5,19.04,0.2273725,0,49.24,54.8,33.11,34.46
"2016-07-04 03:30:00",242722,0.254,88,16.16,100,0,0,867.711,0,-20.73,3.291,198,19.43,19.06,0.3031633,0,49.51,54.8,33.18,34.46
"2016-07-04 03:40:00",242723,0.437,20.88,16.19,100,0,3.5,868.3342,0,21.37,2.882,313,19.41,19.04,0.3372692,0,49.79,54.86,33.24,34.48
"2016-07-04 03:50:00",242724,0.452,151.7,16.19,100,0,1,868.1824,0,18.04,2.915,222,19.43,19.03,0.2235829,0,50.83,54.86,33.5,34.48
"2016-07-04 04:00:00",242725,0.635,147.1,16.14,100,0,0,868.1201,0,19.21,2.903,239,19.36,19.03,0.2614783,0,51.16,54.97,33.58,34.51
"2016-07-04 04:10:00",242726,0.493,114.9,16.24,100,0,0.5,868.0305,0,20.11,2.894,216,19.33,19.02,0.3827437,0,51.16,55.2,33.58,34.56
"2016-07-04 04:20:00",242727,0.343,167.1,16.3,100,0,0.5,868.1028,0,19.14,2.903,211,19.27,19.01,0.3827437,0,51.16,55.66,33.58,34.67
"2016-07-04 04:30:00",242728,0.183,183.4,16.31,100,0,0,868.0193,0,18.16,2.913,218,19.24,19.02,0.3486378,0,51.16,56.29,33.58,34.82
"2016-07-04 04:40:00",242729,0.079,171.7,16.35,100,0.0707451,0,868.0658,0,17.14,2.922,252,19.27,19.01,0.4509554,0.579,51.05,56.75,33.56,34.93
"2016-07-04 04:50:00",242730,0.268,175.7,16.35,100,0.6052637,0.5,868.0295,0,20.11,2.894,365,19.27,19.02,0.4471658,1.143,51.05,57.04,33.56,34.99
"2016-07-04 05:00:00",242731,0.303,185.8,16.35,100,3.136366,0,867.9152,0,-28.63,3.367,189,19.18,19.01,0.6859069,0.218,50.99,57.27,33.54,35.05
"2016-07-04 05:10:00",242732,0,0,16.35,100,3.59621,0.5,867.9112,0,19.51,2.899,227,19.19,19.01,0.7275919,0.203,50.99,57.45,33.54,35.09
"2016-07-04 05:20:00",242733,0.115,174.3,16.37,100,7.102022,0,867.9112,0,20.69,2.888,270,19.18,19.01,1.208864,0.183,50.99,57.56,33.54,35.12
"2016-07-04 05:30:00",242734,0.03,161.9,16.37,100,13.19789,0,867.9055,0,21.2,2.883,233,19.1,19.01,2.0653,0.157,50.99,57.68,33.54,35.14
"2016-07-04 05:40:00",242735,0,0,16.46,100,8.002057,0,867.9513,0,20.91,2.885,245,19.12,18.97,1.258128,0.158,50.99,57.74,33.54,35.16
"2016-07-04 05:50:00",242736,0.018,148.9,16.47,100,16.80982,0,867.9362,0,17.3,2.92,244,19.09,18.97,2.482149,0.151,50.94,57.86,33.53,35.18
"2016-07-04 06:00:00",242737,0,0,16.64,100,20.37459,0,867.9084,0,17.98,2.913,221,19.1,18.94,3.016475,0.149,50.99,57.97,33.54,35.21
"2016-07-04 06:10:00",242738,0,0,16.7,100,21.12134,0,867.9239,0,18.12,2.911,213,19.07,18.93,2.800471,0.132,50.94,57.97,33.53,35.21
"2016-07-04 06:20:00",242739,0.07,327.7,16.75,100,15.15124,0,868.1923,0,13.77,2.953,272,19.02,18.94,2.167617,0.144,50.94,58.09,33.53,35.24
"2016-07-04 06:30:00",242740,0.177,17.42,16.75,100,13.24112,0.5,868.6223,0,19.39,2.898,251,19.02,18.96,2.008457,0.152,50.88,58.15,33.52,35.25
"2016-07-04 06:40:00",242741,0.486,123,16.73,100,56.33275,0,868.5367,0,17.21,2.92,272,19.01,18.97,7.734453,0.141,50.88,58.15,33.52,35.25
"2016-07-04 06:50:00",242742,0.601,117,16.7,100,63.30901,0,868.5292,0,-24.76,3.327,186,18.99,18.97,8.518888,0.135,50.88,58.21,33.52,35.26
"2016-07-04 07:00:00",242743,0.272,143.7,16.87,100,93.7294,0,868.553,0,17.67,2.914,246,18.95,18.97,12.44864,0.133,50.88,58.26,33.52,35.28
"2016-07-04 07:10:00",242744,0.224,183.5,17.09,100,77.02569,0,868.5505,0,17.69,2.913,261,18.95,18.96,10.44776,0.136,50.88,58.26,33.52,35.28
"2016-07-04 07:20:00",242745,0.18,181.4,17.32,100,101.3581,0,868.3682,0,18.35,2.905,264,18.94,18.93,13.74088,0.136,50.88,58.32,33.52,35.29
"2016-07-04 07:30:00",242746,0.144,114.5,17.67,100,142.1145,0,868.3724,0,20.59,2.882,355,18.93,18.9,19.38342,0.137,50.88,58.32,33.52,35.29
"2016-07-04 07:40:00",242747,0.109,119.2,17.97,100,131.8869,0,868.3489,0,20.19,2.884,306,18.93,18.89,17.7462,0.135,50.88,58.38,33.52,35.31
"2016-07-04 07:50:00",242748,0.093,117.6,18.23,100,178.2463,0,868.3035,0,17.66,2.907,253,18.92,18.88,24.38517,0.137,50.88,58.38,33.52,35.31
"2016-07-04 08:00:00",242749,0.093,114.6,18.58,100,230.0802,0,868.0947,0,17.65,2.905,211,18.92,18.87,31.35704,0.136,50.88,58.38,33.52,35.31
"2016-07-04 08:10:00",242750,0.094,169,19.26,99.9,339.715,0,868.2885,0,11.59,2.961,288,18.92,18.83,45.27769,0.133,50.88,58.38,33.52,35.31
"2016-07-04 08:20:00",242751,0.041,112.4,19.29,98.6,152.0014,0,868.332,0,16.16,2.918,215,18.91,18.81,18.74085,0.123,50.83,58.38,33.5,35.31
"2016-07-04 08:30:00",242752,0.179,166,18.85,99.8,186.1521,0,868.326,0,21.18,2.871,229,18.89,18.83,24.2563,0.13,50.83,58.44,33.5,35.32
"2016-07-04 08:40:00",242753,0.109,131.8,19.07,98.4,272.4943,0,868.3277,0,19.58,2.884,230,18.92,18.83,37.28046,0.137,50.88,58.44,33.52,35.32
"2016-07-04 08:50:00",242754,0.152,217.9,19.47,94.1,221.5103,0,868.4771,0,-16.95,3.237,197,18.92,18.83,29.51313,0.133,50.83,58.44,33.5,35.32
"2016-07-04 09:00:00",242755,0.052,209.3,19.38,99.3,221.5758,0,868.5023,0,-16.48,3.232,176,18.92,18.85,29.06591,0.13,50.83,58.44,33.5,35.32
"2016-07-04 09:10:00",242756,0.058,76.38,19.32,98.8,167.7109,0,868.5781,0,-17.26,3.241,202,18.94,18.83,21.13234,0.126,50.83,58.38,33.5,35.31
"2016-07-04 09:20:00",242757,0.032,80.5,19.34,99.7,167.1915,0,868.5781,0,18.2,2.897,271,18.93,18.8,21.9993,0.131,50.77,58.38,33.49,35.31
"2016-07-04 09:30:00",242758,0.403,142.8,19.17,99.9,287.0103,0,868.574,0,22.59,2.856,375,18.93,18.76,40.49062,0.14,50.83,58.38,33.5,35.31
"2016-07-04 09:40:00",242759,0.292,183.1,19.59,95.7,337.8128,0,868.5718,0,21.8,2.86,248,18.98,18.76,47.98072,0.142,50.83,58.44,33.5,35.32
"2016-07-04 09:50:00",242760,0.272,167.6,19.85,97.4,348.3112,0,868.5276,0,22.13,2.856,230,19.03,18.76,49.15186,0.141,50.83,58.38,33.5,35.31
"2016-07-04 10:00:00",242761,0.215,169.4,20,93.7,250.43,0,868.5172,0,-15.2,3.217,176,19.02,18.74,33.69848,0.134,50.77,58.44,33.49,35.32
"2016-07-04 10:10:00",242762,0.046,174,19.95,98.2,181.0368,0,868.5781,0,24.03,2.839,278,18.99,18.68,23.59031,0.13,50.77,58.38,33.49,35.31
"2016-07-04 10:20:00",242763,0.048,249.9,19.83,96.1,121.76,0,868.5781,0,21.21,2.866,243,19.04,18.66,14.81987,0.121,50.77,58.38,33.49,35.31
"2016-07-04 10:30:00",242764,0.086,149.4,19.69,99.6,126.3329,0,868.7171,0,21.05,2.869,228,19.07,18.66,15.80099,0.125,50.77,58.38,33.49,35.31
"2016-07-04 10:40:00",242765,0.216,145.8,19.4,100,122.4236,0,868.8287,0,25.77,2.823,320,19.1,18.68,16.28212,0.133,50.77,58.44,33.49,35.32
"2016-07-04 10:50:00",242766,0.095,157,19.69,99.7,136.2693,0,868.8097,0,26.76,2.813,244,19.1,18.72,18.68389,0.137,50.72,58.44,33.47,35.32
"2016-07-04 11:00:00",242767,0.096,221.1,20,94.5,277.3812,0,868.8034,0,18.64,2.888,328,19.09,18.72,40.1682,0.144,50.72,58.38,33.47,35.31
"2016-07-04 11:10:00",242768,0.262,19.08,20.47,87,286.6979,0,868.7066,0,-18.77,3.249,273,19.16,18.68,40.74905,0.142,50.72,58.44,33.47,35.32
"2016-07-04 11:20:00",242769,0.129,333,20.5,87.5,345.7834,0,868.597,0,-35.9,3.411,206,19.18,18.69,51.11702,0.147,50.72,58.38,33.47,35.31
"2016-07-04 11:30:00",242770,0.677,3.67,21.05,84.5,627.2973,0,868.5803,0,-17.76,3.235,180,19.19,18.69,92.48135,0.146,50.72,58.38,33.47,35.31
"2016-07-04 11:40:00",242771,0.213,323.5,21.05,86,325.0777,0,868.555,0,13.93,2.931,282,19.23,18.68,43.60986,0.128,50.72,58.38,33.47,35.31
"2016-07-04 11:50:00",242772,0.5,12.68,20.35,94.5,133.2462,0,868.5781,0,-14.42,3.21,173,19.26,18.65,14.74431,0.11,50.66,58.38,33.46,35.31
"2016-07-04 12:00:00",242773,0.024,70.97,19.62,100,138.477,1.5,868.4687,0,19.33,2.885,265,19.27,18.58,16.83136,0.121,50.66,58.38,33.46,35.31
"2016-07-04 12:10:00",242774,0.625,328.8,19.32,100,136.834,1.5,868.3508,0,-12.68,3.197,181,19.27,18.58,16.73278,0.122,50.72,58.44,33.47,35.32
"2016-07-04 12:20:00",242775,0.731,332.1,18.99,100,99.75276,2,868.2539,0,20.51,2.878,260,19.28,18.59,12.17222,0.122,51.05,58.44,33.56,35.32
"2016-07-04 12:30:00",242776,0.351,211.4,18.76,99.9,115.8002,0,868.3213,0,18.52,2.897,243,19.41,18.6,15.14676,0.131,51.44,58.61,33.65,35.36
"2016-07-04 12:40:00",242777,0.191,210.6,18.51,100,75.19167,1,868.3255,0,-17.95,3.251,170,19.38,18.6,9.653411,0.128,51.6,58.91,33.69,35.43
"2016-07-04 12:50:00",242778,0,0,18.65,100,114.5595,0,868.3255,0,-16.2,3.233,181,19.48,18.61,15.09438,0.132,51.71,59.26,33.72,35.51
"2016-07-04 13:00:00",242779,0,0,18.8,100,94.60905,0.5,868.3268,0,7.472,3.004,254,19.49,18.62,12.18883,0.129,51.77,59.56,33.73,35.58
"2016-07-04 13:10:00",242780,0.023,137.5,18.79,100,111.3434,0,868.3301,0,21.28,2.87,250,19.51,18.63,14.11006,0.127,51.77,59.73,33.73,35.62
"2016-07-04 13:20:00",242781,0.492,270.5,18.76,100,78.78083,1,868.3368,0,19.12,2.891,257,19.57,18.63,9.506804,0.121,51.77,59.79,33.73,35.63
"2016-07-04 13:30:00",242782,0.833,281.6,18.74,100,47.53587,4.5,868.4883,0,20.47,2.879,345,19.58,18.64,5.486696,0.116,51.99,59.91,33.79,35.66
"2016-07-04 13:40:00",242783,0.999,320.1,18.41,100,43.01404,7,868.6722,0,22.38,2.863,280,19.66,18.66,4.751762,0.111,52.88,64.48,34,36.69
"2016-07-04 13:50:00",242784,0.923,315.3,18.09,100,49.20846,2,869.0636,0,21.04,2.876,266,19.82,18.75,5.411177,0.111,54.01,64.42,34.27,36.68
"2016-07-04 14:00:00",242785,0.513,73.36,18.07,100,59.51373,1,869.3752,0,-16.28,3.237,182,19.79,18.82,6.8853,0.116,53.22,64.54,34.08,36.7
"2016-07-04 14:10:00",242786,0.413,60.04,18.06,100,120.5368,0.5,869.3793,0,-26.97,3.341,201,19.79,18.8,14.79754,0.123,53,64.54,34.03,36.7
"2016-07-04 14:20:00",242787,0.344,184.5,18.09,100,108.1062,0,869.387,0,-15.93,3.234,170,19.79,18.79,13.63425,0.126,52.83,64.54,33.99,36.7
"2016-07-04 14:30:00",242788,0.51,231.6,18.12,100,143.2086,0,869.4026,0,-15.87,3.233,171,19.85,18.8,18.6972,0.131,52.72,64.54,33.96,36.7
"2016-07-04 14:40:00",242789,0.497,213.7,18.05,100,111.0224,0,869.3718,0,19.8,2.888,265,19.85,18.9,14.1913,0.128,52.6,64.54,33.94,36.7
"2016-07-04 14:50:00",242790,0.362,267.3,18.29,94.9,69.37895,0,869.6158,0,18.32,2.901,266,19.77,18.91,9.31059,0.135,52.44,64.54,33.89,36.7
"2016-07-04 15:00:00",242791,0.403,262.7,18.41,93.3,120.2078,0,869.5521,0,17.99,2.904,383,19.71,18.9,17.60944,0.146,52.38,64.48,33.88,36.69
"2016-07-04 15:10:00",242792,0.408,271.8,18.34,95.9,128.1242,0,869.459,0,19.81,2.884,268,19.71,18.92,18.70094,0.146,52.27,64.36,33.85,36.66
"2016-07-04 15:20:00",242793,0.85,38.24,18.64,90.2,123.9405,0,869.6218,0,-15.29,3.225,184,19.7,18.9,18.70064,0.151,52.16,63.51,33.83,36.47
"2016-07-04 15:30:00",242794,0.68,348.9,18.71,88.4,122.7386,0,869.5839,0,-12.03,3.192,170,19.7,18.88,18.75381,0.153,52.1,63.02,33.81,36.36
"2016-07-04 15:40:00",242795,0.778,9.93,18.76,83.2,81.02953,0,869.5843,0,-16.95,3.24,181,19.71,18.88,13.94911,0.172,51.99,62.78,33.79,36.31
"2016-07-04 15:50:00",242796,0.806,31.91,18.4,89.4,151.5157,0.5,869.5707,0,-13.47,3.208,176,19.73,18.89,22.97588,0.152,51.99,62.36,33.79,36.21
"2016-07-04 16:00:00",242797,0.401,355.5,18.48,92.3,111.5492,0,869.5262,0,24.84,2.837,265,19.73,18.9,16.90891,0.152,51.94,62.18,33.77,36.17
"2016-07-04 16:10:00",242798,0.652,33.32,18.56,89.2,115.1494,0,869.384,0,-15.3,3.224,191,19.74,18.91,17.84495,0.155,51.88,62.06,33.76,36.15
"2016-07-04 16:20:00",242799,0.432,247,18.69,86.4,78.75895,0,869.2919,0,-13.6,3.209,171,19.72,18.93,12.32359,0.157,51.82,60.74,33.75,35.85
"2016-07-04 16:30:00",242800,0.532,23.37,18.74,83.6,43.53925,0,869.3502,0,21.46,2.868,234,19.75,18.92,8.033747,0.184,51.77,60.62,33.73,35.82
"2016-07-04 16:40:00",242801,0.527,105.4,18.63,84.9,50.97499,0,869.1829,0,19.95,2.885,241,19.74,18.92,9.576024,0.188,51.77,60.44,33.73,35.78
"2016-07-04 16:50:00",242802,0.645,193.7,18.23,91.6,62.66259,0,869.0259,0,23.16,2.855,256,19.71,18.92,10.90598,0.176,51.66,60.27,33.7,35.74
"2016-07-04 17:00:00",242803,0.523,163.9,18.23,90.4,70.25223,0,869.0136,0,-3.109,3.108,198,19.72,18.92,11.90647,0.172,51.66,60.15,33.7,35.71
"2016-07-04 17:10:00",242804,0.681,311.3,18.51,83.4,61.27207,0,869.1172,0,20.46,2.879,242,19.71,18.92,11.57685,0.19,51.6,60.09,33.69,35.7
"2016-07-04 17:20:00",242805,0.786,51.14,18.32,86.4,54.85061,0,869.2131,0,16.24,2.922,320,19.7,18.93,10.36052,0.189,51.55,60.03,33.68,35.69
"2016-07-04 17:30:00",242806,0.599,357.7,18.27,85.9,40.1281,0,869.1735,0,-17.84,3.252,183,19.69,18.93,8.382445,0.21,51.55,59.85,33.68,35.64
"2016-07-04 17:40:00",242807,0.591,35.77,18.27,85.6,24.47761,0,869.1299,0,21.47,2.871,327,19.68,18.93,5.847212,0.243,51.49,59.79,33.66,35.63
"2016-07-04 17:50:00",242808,0.435,14.64,18.19,85.9,15.56747,0,869.3011,0,12.35,2.961,306,19.7,18.92,5.005859,0.322,51.49,59.73,33.66,35.62
"2016-07-04 18:00:00",242809,0.569,34.22,17.72,93.3,14.24711,0,869.325,0,20.84,2.88,282,19.71,18.93,4.320023,0.321,51.44,59.67,33.65,35.6
"2016-07-04 18:10:00",242810,0.666,19.48,17.81,91.4,14.27859,0,869.2052,0,23.74,2.852,356,19.71,18.93,4.706568,0.331,51.38,59.61,33.64,35.59
"2016-07-04 18:20:00",242811,0.482,11.45,17.69,92.4,7.042881,0,869.3787,0,18.44,2.902,258,19.69,18.92,3.440812,0.526,51.38,59.56,33.64,35.58
"2016-07-04 18:30:00",242812,0.496,32.46,17.82,90.5,8.347693,0,869.3792,0,21.75,2.87,235,19.65,18.92,3.664387,0.459,51.38,59.5,33.64,35.56
"2016-07-04 18:40:00",242813,0.347,43.14,17.78,89.8,9.263539,0,869.2667,0,19.21,2.895,225,19.63,18.92,3.581062,0.391,51.33,59.5,33.62,35.56
"2016-07-04 18:50:00",242814,0.751,30.23,17.92,86.9,10.83966,0,869.3879,0,318,0,0,19.62,18.93,3.94868,0.365,51.33,59.44,33.62,35.55
"2016-07-04 19:00:00",242815,0.588,30.17,18.22,83.6,7.93916,0,869.539,0,21.61,2.87,274,19.63,18.93,3.956275,0.508,51.27,59.38,33.61,35.54
"2016-07-04 19:10:00",242816,0.394,14.26,18.31,82.4,3.360391,0,869.5131,0,-17.62,3.247,186,19.66,18.93,3.190793,0.966,51.21,59.38,33.6,35.54
"2016-07-04 19:20:00",242817,0.574,4.939,18.76,78,2.389612,0,869.6904,0,19.28,2.89,250,19.68,18.94,3.766804,1.651,51.27,59.38,33.61,35.54
"2016-07-04 19:30:00",242818,0.759,22.61,18.88,76.59,1.454205,0,869.8577,0,-18.63,3.255,196,19.67,18.95,3.694802,2.616,51.21,59.32,33.6,35.52
"2016-07-04 19:40:00",242819,0.484,36.7,18.48,80.8,0.1296991,0,869.9795,0,23.6,2.852,332,19.63,18.94,2.501077,1.694,51.16,59.26,33.58,35.51
"2016-07-04 19:50:00",242820,0.632,5.366,18.62,78.73,0.4048147,0,870.2275,0,-13.1,3.204,192,19.62,18.93,2.989916,3.684,51.16,59.2,33.58,35.5
"2016-07-04 20:00:00",242821,0.758,23.79,18.57,79.85,0,0,870.3055,0,17.16,2.912,255,19.61,18.96,2.70951,0,51.1,59.2,33.57,35.5
"2016-07-04 20:10:00",242822,0.574,82.8,18.33,83.2,0,0,869.9805,0,-23.42,3.309,185,19.56,18.94,2.197931,0,51.1,59.14,33.57,35.48
"2016-07-04 20:20:00",242823,0.542,96.8,17.48,94.7,0,0,869.8588,0,21.96,2.87,285,19.58,18.93,1.212653,0,51.05,59.14,33.56,35.48
"2016-07-04 20:30:00",242824,0.766,120.6,18.3,80.4,0.1611416,0,869.6494,0,16.72,2.916,350,19.62,18.93,3.080897,4.869,51.05,59.08,33.56,35.47
"2016-07-04 20:40:00",242825,0.644,102.2,18.79,75.86,0.1100479,0,869.4704,0,18.76,2.895,324,19.61,18.93,3.323428,6.733,51.05,59.03,33.56,35.45
"2016-07-04 20:50:00",242826,0.94,78.5,18.92,73.91,0,0,869.3519,0,16.06,2.917,291,19.57,18.94,3.312048,0,50.99,59.08,33.54,35.47
"2016-07-04 21:00:00",242827,0.871,6.794,19.47,69.29,0,0,869.4874,0,-3.561,3.105,198,19.53,18.93,3.99403,0,50.99,59.03,33.54,35.45
"2016-07-04 21:10:00",242828,0.789,13.6,19.3,71.19,0,0,869.8027,0,20.43,2.877,373,19.51,18.94,3.471125,0,50.99,59.03,33.54,35.45
"2016-07-04 21:20:00",242829,0.531,15.22,18.84,73.5,0,0,869.9053,0,-0.351,3.079,247,19.46,18.93,2.413882,0,50.94,58.85,33.53,35.41
"2016-07-04 21:30:00",242830,0.176,110.9,18.21,80.6,0,0,869.8507,0,-37.8,3.45,241,19.5,18.92,0.954944,0,50.94,58.79,33.53,35.4
"2016-07-04 21:40:00",242831,0.234,61.52,18.1,79.82,0,0,869.9716,0,-0.662,3.088,282,19.53,18.92,1.69007,0,50.94,58.79,33.53,35.4
"2016-07-04 21:50:00",242832,0.278,42.4,17.84,80.7,0,0,870.1104,0,-27.75,3.344,200,19.51,18.92,1.421033,0,50.94,58.79,33.53,35.4
"2016-07-04 22:00:00",242833,0.424,341.3,19.11,70.04,0.02358074,0,870.2512,0,1.081,3.062,284,19.45,18.91,3.236109,0.836,50.88,58.73,33.52,35.39
"2016-07-04 22:10:00",242834,0.459,323.5,19.04,70.69,0,0,870.1363,0,20.71,2.877,296,19.41,18.92,2.209213,0,50.94,58.73,33.53,35.39
"2016-07-04 22:20:00",242835,0.47,146.8,17.96,81.5,0,0,870.1008,0,2.002,3.065,247,19.36,18.91,0.9397651,0,50.88,58.73,33.52,35.39
"2016-07-04 22:30:00",242836,0.635,260.5,18.34,74.2,0,0,870.0149,0,-17.87,3.249,180,19.39,18.91,2.072722,0,50.88,58.73,33.52,35.39
"2016-07-04 22:40:00",242837,0.356,158.1,18.29,75.54,0,0,870.0193,0,-16.2,3.235,193,19.41,18.93,1.515738,0,50.88,58.79,33.52,35.4
"2016-07-04 22:50:00",242838,0.485,178.3,17.97,77.45,0,0,869.9189,0,-22.8,3.302,173,19.43,18.95,1.208829,0,50.88,58.73,33.52,35.39
"2016-07-04 23:00:00",242839,0.528,228.9,17.67,80.7,0,0,869.879,0,0.686,3.074,239,19.36,18.97,1.163368,0,50.88,58.73,33.52,35.39
"2016-07-04 23:10:00",242840,0.467,315.1,18.01,78.74,0,0,870.027,0,-17.81,3.25,189,19.31,18.97,1.542333,0,50.83,58.67,33.5,35.37
"2016-07-04 23:20:00",242841,0.728,18.84,18.8,73.98,0,0,870.1161,0,-16.48,3.234,184,19.29,18.97,2.508671,0,50.88,58.73,33.52,35.39
"2016-07-04 23:30:00",242842,0.618,12.64,18.96,73.64,0,0,869.9636,0,-40.99,3.472,320,19.31,18.96,1.940238,0,50.88,58.67,33.52,35.37
"2016-07-04 23:40:00",242843,0.67,2.512,18.96,73.58,0,0,870.1379,0,-14.8,3.218,192,19.33,18.96,1.693903,0,50.83,58.67,33.5,35.37
"2016-07-04 23:50:00",242844,0.502,297.9,18.84,74.65,0,0,870.1966,0,-34.13,3.406,245,19.27,18.95,1.337693,0,50.83,58.67,33.5,35.37
